OBJECT E, 63523

Orbit data source: Space-Track

You're viewing an Uncataloged Satellite

Recently launched and/or uncataloged satellites may have evolving metadata. Metadata may include but not limited to: Owner, Maufacturer, Bus, Motor, and Mission.

OBJECT E, 63523 is a satellite owned by Tsinghua (CN) in LEO that was launched on Thu, 29 Apr 2021 UTC via a CHANG ZHENG 7 launch vehicle from the Wenchang Satellite Launch Center (WSC). Unknown objects in Earth's orbit typically refer to objects detected orbiting the Earth but have not yet been identified or cataloged. These objects could be anything from previously untracked satellites, spent rocket stages, debris from satellite collisions, or even natural meteoroids temporarily captured by Earth's gravity.

Loading next visibility...
Identifier
63523, 2021-035E
Orbit
LEO
Country
Flag of CNCN / PRC
Related business
Manufacturer
Tsinghua
Mission
Amateur Imaging
Bus & Motor
NAXING, Unknown motor
Mass
20 kg wet, 20 kg dry
Launch date (UTC)
2021-04-29 (5 years ago)
Launch vehicle
CHANG ZHENG 7
Launch site
Wenchang Satellite Launch Center (WSC)
Object type
Unknown
Shape & HBR
Box, 0.4 m
Radar Cross Section
0.240 m², Medium (>0.1 m² and < 1m²)

Expand to show TLE details & history
Last TLE update: 1 week ago

TLE from 1 week ago
0 OBJECT E
1 63523U 21035E   26027.12943690  .00119798  00000-0  96079-3 0  9990
2 63523  41.4562  75.4660 0006943  27.2021 332.9183 15.69825237 46228
Epoch: 2026-01-27T03:06Z
TLE epoch observation values (Epoch: 2026-01-27T03:06:23.348Z)
Latitude
-0.00004°
Longitude
-97.54659°
Altitude
354.83 km
Speed
7.701 km/s
True Right ascension
05h 01m 51s
True Declination
0° 00' 00"
Sunlit
Object was in full shadow at epoch
Visualization orbit readout
Latitude
Unknown
Longitude
Unknown
Altitude
Unknown
Speed
Unknown
Apparent Right ascension
Unknown
Apparent Declination
Unknown
Sunlit
N/A
Visualization observer readout
Local Sidereal Time
04:18:23
Azimuth
Unknown
Elevation
Unknown
Doppler factor
Unknown
Orbital elements
Apogee altitude
366.32 km
Perigee altitude
356.961 km
Semi-major axis
6,739.778 km
Eccentricity
0.00069
Inclination
41.4562°
RAAN
75.466°
Arg. of periapsis
27.2021°
True anomaly
332.88205°
Mean anomaly
332.9183°
Eccentric anomaly
332.90018°
Mean motion
3.92261 °/min
Orbital period
91.78 mins
BSTAR
0.00096079
Loading maneuver chart data...
Computing Atmospheric mass density...
Loading historical data...
Loading historical data...
Loading historical data...
Loading historical data...
Loading historical data...
Loading historical data...
Loading historical data...

Documentation

Showing up to 5 results
|